Location: Newark
(41.7622°N, 48.6978°E)
Time: 18:03:08
(UTC+00:00)

ISS - Visible Passes

Search period start: 28 January 2020 00:00
Search period end: 07 February 2020 00:00
Orbit: 415 x 423 km, 51.6° (Epoch: 29 January)

Date Brightness Start Highest point End Pass type
(mag) Time Alt. Az. Time Alt. Az. Time Alt. Az.
28 Jan -1.9 14:21:22 10° WNW 14:24:06 22° NNW 14:26:52 10° NE visible
28 Jan -1.1 15:59:43 10° NW 16:00:43 14° NNW 16:00:43 14° NNW visible
29 Jan -1.6 15:11:53 10° NW 15:14:01 15° N 15:15:06 14° NNE visible
30 Jan -1.6 14:23:57 10° NW 14:26:12 16° N 14:28:27 10° NE visible
30 Jan -1.2 16:01:30 10° NW 16:02:28 14° NNW 16:02:28 14° NNW visible
31 Jan -1.7 15:13:56 10° NW 15:16:09 16° N 15:16:52 15° NNE visible
01 Feb -1.6 14:26:13 10° NW 14:28:20 15° N 14:30:26 10° NE visible
01 Feb -1.5 16:02:58 10° NW 16:04:17 19° NNW 16:04:17 19° NNW visible
02 Feb -2.2 15:15:28 10° NW 15:18:11 22° NNE 15:18:46 21° NNE visible
03 Feb -1.9 14:27:55 10° NW 14:30:22 18° NNE 14:32:50 10° ENE visible
03 Feb -2.2 16:04:22 10° NW 16:06:19 30° NW 16:06:19 30° NW visible
04 Feb -3.1 15:16:49 10° NW 15:20:02 38° NNE 15:20:58 31° ENE visible
04 Feb -0.2 16:53:46 10° WNW 16:53:57 11° WNW 16:53:57 11° WNW visible
05 Feb -2.6 14:29:17 10° NW 14:32:16 28° NNE 14:35:15 10° E visible
05 Feb -2.7 16:05:55 10° WNW 16:08:45 45° WSW 16:08:45 45° WSW visible
06 Feb -3.8 15:18:13 10° NW 15:21:37 86° SW 15:23:42 21° SE visible
